TimeCDT,TemperatureF,Dew PointF,Humidity,Sea Level PressureIn,VisibilityMPH,Wind Direction,Wind SpeedMPH,Gust SpeedMPH,PrecipitationIn,Events,Conditions,WindDirDegrees,DateUTC
12:51 AM,79.0,66.0,64,29.95,10.0,East,5.8,-,N/A,,Partly Cloudy,90,2012-10-16 05:51:00
1:51 AM,77.0,68.0,74,29.95,10.0,NE,3.5,-,N/A,,Partly Cloudy,50,2012-10-16 06:51:00
2:51 AM,78.1,66.0,66,29.94,10.0,East,4.6,-,N/A,,Scattered Clouds,100,2012-10-16 07:51:00
3:51 AM,78.1,66.9,68,29.92,10.0,ESE,5.8,-,N/A,,Scattered Clouds,120,2012-10-16 08:51:00
4:51 AM,77.0,66.9,71,29.91,10.0,ESE,3.5,-,N/A,,Partly Cloudy,110,2012-10-16 09:51:00
5:51 AM,77.0,68.0,74,29.90,10.0,ESE,5.8,-,N/A,,Scattered Clouds,110,2012-10-16 10:51:00
6:51 AM,78.1,69.1,74,29.89,10.0,ESE,5.8,-,N/A,,Mostly Cloudy,110,2012-10-16 11:51:00
7:51 AM,78.1,70.0,76,29.89,10.0,ESE,4.6,-,N/A,,Mostly Cloudy,120,2012-10-16 12:51:00
8:51 AM,80.6,71.6,74,29.90,10.0,SE,6.9,-,N/A,Rain,Light Rain,140,2012-10-16 13:51:00
9:51 AM,80.1,72.0,76,29.91,10.0,Calm,Calm,-,0.00,,Mostly Cloudy,0,2012-10-16 14:51:00
10:51 AM,82.0,72.0,71,29.91,10.0,Variable,3.5,-,0.00,,Mostly Cloudy,0,2012-10-16 15:51:00
11:51 AM,84.9,69.1,59,29.90,10.0,SW,6.9,-,N/A,,Mostly Cloudy,220,2012-10-16 16:51:00
12:51 PM,87.1,66.0,49,29.88,10.0,South,8.1,-,N/A,,Mostly Cloudy,180,2012-10-16 17:51:00
1:51 PM,88.0,66.9,49,29.83,10.0,Variable,3.5,-,N/A,,Mostly Cloudy,0,2012-10-16 18:51:00
2:51 PM,88.0,66.9,49,29.80,10.0,SSE,4.6,-,N/A,,Mostly Cloudy,160,2012-10-16 19:51:00
3:51 PM,89.1,66.9,48,29.78,10.0,South,6.9,-,N/A,,Mostly Cloudy,170,2012-10-16 20:51:00
4:51 PM,87.1,70.0,57,29.75,10.0,SE,13.8,-,N/A,,Scattered Clouds,130,2012-10-16 21:51:00
5:51 PM,84.9,70.0,61,29.75,10.0,SE,15.0,-,N/A,,Mostly Cloudy,140,2012-10-16 22:51:00
6:51 PM,82.9,70.0,65,29.75,10.0,SE,11.5,-,N/A,,Mostly Cloudy,130,2012-10-16 23:51:00
7:51 PM,82.0,70.0,67,29.76,10.0,SE,11.5,-,N/A,,Mostly Cloudy,140,2012-10-17 00:51:00
8:51 PM,82.0,71.1,69,29.79,10.0,SE,8.1,-,N/A,,Mostly Cloudy,130,2012-10-17 01:51:00
9:51 PM,82.0,70.0,67,29.81,10.0,East,5.8,-,N/A,,Scattered Clouds,90,2012-10-17 02:51:00
10:51 PM,81.0,71.1,72,29.79,10.0,ESE,9.2,-,N/A,,Scattered Clouds,120,2012-10-17 03:51:00
11:49 PM,80.6,71.6,74,29.78,10.0,ESE,8.1,-,N/A,,Mostly Cloudy,120,2012-10-17 04:49:00
11:51 PM,81.0,72.0,74,29.78,10.0,ESE,9.2,-,N/A,,Mostly Cloudy,120,2012-10-17 04:51:00